Baltimore, MD

6:53 AM EDT on October 20, 2017 (GMT -0400)
Baltimore-Washington International

Weather History for KBWI - October, 2014

Change the Weather History Date:

Thursday, October 16, 2014

  Actual Average Record
Temperature  
Mean Temperature 61 °F 56 °F  
Max Temperature 64 °F 67 °F 90 °F (1897)
Min Temperature 57 °F 45 °F 30 °F (1876)
Degree Days  
Heating Degree Days 4 10  
Month to date heating degree days 83 118  
Since 1 July heating degree days 120 171  
Cooling Degree Days 0 0  
Month to date cooling degree days 12 15  
Year to date cooling degree days 1084 1160  
Growing Degree Days 10 (Base 50)    
Moisture  
Dew Point 57 °F    
Average Humidity 87    
Maximum Humidity 100    
Minimum Humidity 73    
Precipitation  
Precipitation T in 0.10 in 1.65 in (2002)
Month to date precipitation 2.44 1.76  
Year to date precipitation 43.92 33.64  
Snow  
Snow 0.00 in 0.00 in - ()
Month to date snowfall 0.0 0.0  
Since 1 July snowfall 0.0 0.0  
Snow Depth 0.00 in    
Sea Level Pressure  
Sea Level Pressure 29.74 in    
Wind  
Wind Speed 4 mph (SSW)    
Max Wind Speed 10 mph    
Max Gust Speed 14 mph    
Visibility 7 miles    
Events Rain    
T = Trace of Precipitation, MM = Missing Value Source: NWS Daily Summary

Daily Weather History Graph

Daily Weather History Graph

Search for Another Location

Airport or City:

Trip Planner

Search our weather history database for the weather conditions in past years. The results will help you decide how hot, cold, wet, or windy it might be!

Date:

Astronomy

Oct. 16, 2014 Rise Set
Actual Time 7:17 AM EDT 6:26 PM EDT
Civil Twilight 6:50 AM EDT 6:53 PM EDT
Nautical Twilight 6:19 AM EDT 7:24 PM EDT
Astronomical Twilight 5:48 AM EDT 7:55 PM EDT
Moon 12:28 AM EDT (10/16) 2:34 PM EDT (10/16)
Length of Visible Light 12h 03m
Length of Day
11h 09m
Last Quarter, 42% of the Moon is Illuminated
Oct 16
Last Quarter
Oct 23
New
Oct 30
First Quarter
Nov 6
Full
Nov 14
Last Quarter

Hourly Weather History & Observations

Time (EDT) Temp. Dew Point Humidity Pressure Visibility Wind Dir Wind Speed Gust Speed Precip Events Conditions
12:54 AM 61.0 °F 59.0 °F 93% 29.75 in 10.0 mi SSW 4.6 mph - N/A   Mostly Cloudy
1:01 AM 60.8 °F 59.0 °F 94% 29.75 in 10.0 mi SSW 4.6 mph - N/A   Mostly Cloudy
1:54 AM 59.0 °F 57.9 °F 96% 29.73 in 10.0 mi Calm Calm - N/A   Mostly Cloudy
2:50 AM 57.2 °F 57.2 °F 100% 29.73 in 10.0 mi SSW 3.5 mph - N/A   Mostly Cloudy
2:54 AM 57.9 °F 57.0 °F 97% 29.73 in 10.0 mi SSW 3.5 mph - N/A   Mostly Cloudy
3:23 AM 57.2 °F 57.2 °F 100% 29.72 in 9.0 mi Calm Calm - N/A   Scattered Clouds
3:33 AM 57.2 °F 57.2 °F 100% 29.72 in 8.0 mi SW 3.5 mph - N/A   Mostly Cloudy
3:54 AM 59.0 °F 57.0 °F 93% 29.72 in 8.0 mi WSW 6.9 mph - N/A   Overcast
4:13 AM 59.0 °F 57.2 °F 94% 29.72 in 8.0 mi SSW 4.6 mph - N/A   Overcast
4:24 AM 59.0 °F 57.2 °F 94% 29.72 in 8.0 mi Calm Calm - N/A   Overcast
4:54 AM 59.0 °F 57.0 °F 93% 29.72 in 8.0 mi SW 3.5 mph - N/A   Overcast
5:35 AM 59.0 °F 57.2 °F 94% 29.72 in 8.0 mi SW 4.6 mph - N/A   Overcast
5:54 AM 59.0 °F 57.0 °F 93% 29.73 in 8.0 mi SSW 3.5 mph - N/A   Overcast
6:44 AM 59.0 °F 57.2 °F 94% 29.73 in 8.0 mi SW 3.5 mph - N/A   Overcast
6:54 AM 59.0 °F 57.0 °F 93% 29.73 in 7.0 mi SW 4.6 mph - N/A   Overcast
7:54 AM 59.0 °F 57.0 °F 93% 29.74 in 5.0 mi WSW 5.8 mph - N/A   Overcast
8:12 AM 59.0 °F 57.2 °F 94% 29.74 in 2.5 mi SW 3.5 mph - 0.00 in   Light Drizzle
8:20 AM 59.0 °F 57.2 °F 94% 29.74 in 1.8 mi SW 3.5 mph - 0.00 in   Light Drizzle
8:36 AM 59.0 °F 57.2 °F 94% 29.75 in 1.0 mi SSW 3.5 mph - 0.00 in   Light Drizzle
8:54 AM 59.0 °F 57.9 °F 96% 29.75 in 1.0 mi SSW 4.6 mph - 0.00 in   Light Drizzle
9:28 AM 59.0 °F 57.2 °F 94% 29.75 in 1.5 mi SSW 4.6 mph - 0.00 in   Light Drizzle
9:51 AM 59.0 °F 57.2 °F 94% 29.75 in 2.0 mi SW 4.6 mph - 0.00 in   Light Drizzle
9:54 AM 59.0 °F 57.9 °F 96% 29.75 in 2.0 mi SW 5.8 mph - 0.00 in   Light Drizzle
10:54 AM 60.1 °F 57.9 °F 93% 29.75 in 2.5 mi South 3.5 mph - 0.00 in   Light Drizzle
11:11 AM 60.8 °F 57.2 °F 88% 29.75 in 3.0 mi South 4.6 mph - 0.00 in   Light Drizzle
11:54 AM 60.1 °F 57.9 °F 93% 29.75 in 3.0 mi South 4.6 mph - 0.00 in   Light Drizzle
12:08 PM 60.8 °F 57.2 °F 88% 29.75 in 3.0 mi South 4.6 mph - 0.00 in   Light Drizzle
12:34 PM 60.8 °F 57.2 °F 88% 29.75 in 5.0 mi South 3.5 mph - 0.00 in   Light Drizzle
12:44 PM 60.8 °F 57.2 °F 88% 29.74 in 5.0 mi South 4.6 mph - 0.00 in   Overcast
12:54 PM 61.0 °F 57.0 °F 87% 29.74 in 6.0 mi South 9.2 mph - 0.00 in   Overcast
1:54 PM 60.1 °F 55.9 °F 86% 29.73 in 8.0 mi South 4.6 mph - 0.00 in   Light Drizzle
2:54 PM 62.1 °F 57.0 °F 84% 29.72 in 9.0 mi SSW 5.8 mph - 0.00 in   Overcast
3:37 PM 62.6 °F 57.2 °F 82% 29.73 in 10.0 mi South 5.8 mph - N/A   Overcast
3:54 PM 62.1 °F 57.0 °F 84% 29.72 in 10.0 mi SE 6.9 mph - N/A   Mostly Cloudy
4:06 PM 62.6 °F 57.2 °F 82% 29.72 in 10.0 mi SE 5.8 mph - N/A   Mostly Cloudy
4:54 PM 64.0 °F 55.9 °F 75% 29.72 in 10.0 mi SSW 5.8 mph - N/A   Scattered Clouds
5:54 PM 62.1 °F 55.9 °F 80% 29.73 in 10.0 mi SSW 3.5 mph - N/A   Scattered Clouds
6:54 PM 60.1 °F 57.0 °F 90% 29.72 in 10.0 mi SSE 4.6 mph - N/A   Scattered Clouds
7:54 PM 59.0 °F 57.0 °F 93% 29.73 in 10.0 mi Calm Calm - N/A   Mostly Cloudy
8:54 PM 60.1 °F 57.0 °F 90% 29.75 in 10.0 mi Calm Calm - N/A   Overcast
9:54 PM 59.0 °F 57.0 °F 93% 29.75 in 9.0 mi Calm Calm - N/A   Overcast
10:54 PM 57.2 °F 57.2 °F 100% 29.75 in 9.0 mi Calm Calm - N/A   Mostly Cloudy
11:54 PM 57.0 °F 55.9 °F 96% 29.74 in 9.0 mi WSW 3.5 mph - N/A   Mostly Cloudy